Location: Recife
(8.0585°S, 34.8848°W)
Time: 21:23:13
(UTC-03:00)

S-56A Canister/Altair - Pass Details

Date: 19 April 2026
Orbit: 633 x 2484 km, 38.9° (Epoch: 16 May)

Event Time Altitude Azimuth Distance (km) Brightness Sun altitude
Rises 08:41:47 0° 348° (NNW) 6,126 12.3 46.5°
Reaches altitude 10° 08:52:52 10° 26° (NNE) 5,031 12.4 48.9°
Maximum altitude 08:54:16 10° 31° (NNE) 4,980 12.4 49.2°
Drops below altitude 10° 08:55:38 10° 37° (NE) 4,954 12.4 49.5°
Sets 09:05:27 0° 75° (ENE) 5,508 12.5 51.6°
